TimeAKDT,TemperatureF,Dew PointF,Humidity,Sea Level PressureIn,VisibilityMPH,Wind Direction,Wind SpeedMPH,Gust SpeedMPH,PrecipitationIn,Events,Conditions,WindDirDegrees,DateUTC
12:53 AM,17.1,12.9,84,30.00,10.0,Calm,Calm,-,N/A,,Clear,0,2012-10-29 08:53:00
1:53 AM,17.1,12.9,84,30.00,10.0,Calm,Calm,-,N/A,,Clear,0,2012-10-29 09:53:00
2:53 AM,16.0,12.0,84,29.99,10.0,East,3.5,-,N/A,,Mostly Cloudy,80,2012-10-29 10:53:00
3:53 AM,18.0,12.9,81,29.98,10.0,Calm,Calm,-,N/A,,Scattered Clouds,0,2012-10-29 11:53:00
4:53 AM,17.1,12.9,84,29.96,10.0,Calm,Calm,-,N/A,,Mostly Cloudy,0,2012-10-29 12:53:00
5:53 AM,16.0,12.9,88,29.95,10.0,Calm,Calm,-,N/A,,Mostly Cloudy,0,2012-10-29 13:53:00
6:53 AM,17.1,12.9,84,29.94,10.0,Calm,Calm,-,N/A,,Clear,0,2012-10-29 14:53:00
7:53 AM,17.1,12.0,81,29.94,10.0,East,4.6,-,N/A,,Clear,90,2012-10-29 15:53:00
8:53 AM,18.0,14.0,84,29.92,10.0,Calm,Calm,-,N/A,,Clear,0,2012-10-29 16:53:00
9:53 AM,18.0,14.0,84,29.91,10.0,Calm,Calm,-,N/A,,Clear,0,2012-10-29 17:53:00
10:53 AM,25.0,17.1,72,29.91,10.0,Calm,Calm,-,N/A,,Clear,0,2012-10-29 18:53:00
11:53 AM,30.0,19.9,66,29.90,10.0,Calm,Calm,-,N/A,,Clear,0,2012-10-29 19:53:00
12:53 PM,32.0,21.9,66,29.89,9.0,NNW,4.6,-,N/A,,Scattered Clouds,330,2012-10-29 20:53:00
1:53 PM,33.1,21.9,64,29.88,10.0,North,4.6,-,N/A,,Mostly Cloudy,350,2012-10-29 21:53:00
2:53 PM,34.0,19.0,54,29.87,10.0,NNE,3.5,-,N/A,,Mostly Cloudy,30,2012-10-29 22:53:00
3:53 PM,35.1,19.9,54,29.85,10.0,NNE,3.5,-,N/A,,Mostly Cloudy,30,2012-10-29 23:53:00
4:53 PM,34.0,24.1,67,29.84,10.0,NNW,4.6,-,N/A,,Mostly Cloudy,340,2012-10-30 00:53:00
5:53 PM,34.0,21.0,59,29.83,10.0,Calm,Calm,-,N/A,,Mostly Cloudy,0,2012-10-30 01:53:00
6:53 PM,32.0,23.0,69,29.83,10.0,NNW,4.6,-,N/A,,Partly Cloudy,330,2012-10-30 02:53:00
7:53 PM,28.9,23.0,78,29.83,10.0,North,4.6,-,N/A,,Clear,10,2012-10-30 03:53:00
8:53 PM,28.0,23.0,81,29.82,10.0,Calm,Calm,-,N/A,,Overcast,0,2012-10-30 04:53:00
9:53 PM,28.0,23.0,81,29.81,10.0,Calm,Calm,-,N/A,,Mostly Cloudy,0,2012-10-30 05:53:00
10:53 PM,27.0,23.0,85,29.80,10.0,Calm,Calm,-,N/A,,Mostly Cloudy,0,2012-10-30 06:53:00
11:37 PM,28.4,24.8,86,29.80,3.0,Calm,Calm,-,0.00,Snow,Light Snow,0,2012-10-30 07:37:00
11:44 PM,28.4,24.8,86,29.80,2.5,Calm,Calm,-,0.00,Snow,Light Snow,0,2012-10-30 07:44:00
11:49 PM,26.6,24.8,93,29.80,1.5,Calm,Calm,-,0.00,Snow,Light Snow,0,2012-10-30 07:49:00
11:53 PM,27.0,25.0,92,29.81,1.5,Calm,Calm,-,0.00,Snow,Light Snow,0,2012-10-30 07:53:00